Miscellaneous Local Product
Issued by NWS North Platte, NE

Home | Current Version | Previous Version | Text Only | Print | Product List | Glossary On
Versions: 1 2 3 4 5 6 7 8 9 10 11 12 13 14 15 16 17 18 19 20 21 22 23 24 25 26 27 28 29 30 31 32 33 34 35 36 37 38 39 40 41 42 43 44 45 46 47 48 49 50
000
AXUS43 KLBF 302110
MISLBF


WESTERN AND NORTH CENTRAL NEBRASKA HOURLY WEATHER ROUNDUP
NATIONAL WEATHER SERVICE NORTH PLATTE NE
400 PM CDT TUE SEP 30 2014

***STATIONS NOT REPORTING VARIABLES SUCH AS SKY/WEATHER OR
PRESSURE ARE PROVIDED BY THE NEBRASKA DEPARTMENT OF
ROADS...RAWS...AND APRS NETWORKS...AND ARE NOT UNDER
NATIONAL WEATHER SERVICE QUALITY CONTROL***

...OBSERVATIONS IN AND NEAR THE EASTERN PANHANDLE OF NEBRASKA...

CITY           SKY/WX    TMP DP  RH WIND       PRES   REMARKS
PINE RIDGE     PTSUNNY   66  48  52 W22G32    29.62R
CHADRON        MOSUNNY   69  48  47 W24G31    29.64F
ALLIANCE       MOSUNNY   69  41  36 W25G31    29.69F
SIDNEY         MOSUNNY   69  38  32 W14       29.76F
WHITECLAY        N/A     67  47  48 W17         N/A
RUSHVILLE        N/A     68  33  28 W28         N/A
CRESCENT LAKE    N/A     71  40  32 W16G28      N/A
LISCO            N/A     74  38  26 W13         N/A
BIG SPRINGS      N/A     74  43  32 W12         N/A
$$

...OBSERVATIONS IN NORTH CENTRAL NEBRASKA...

CITY           SKY/WX    TMP DP  RH WIND       PRES   REMARKS
VALENTINE      PTSUNNY   72  44  36 W33G48    29.60F
THEDFORD       SUNNY     76  43  30 W29       29.68F
AINSWORTH      MOSUNNY   73  43  34 SW29      29.64S
O`NEILL        MOSUNNY   78  45  30 SW23G31   29.67R
ORD            SUNNY     79  43  27 SW17      29.67F
BROKEN BOW     MOSUNNY   80  40  23 W15G30    29.69F
SPRINGVIEW       N/A     75  48  38 SW20G29     N/A
ROSE             N/A     80  48  32 S21         N/A
NEWPORT          N/A     77  45  31 SW26        N/A
SARGENT          N/A     78  41  26 W10G23      N/A
COMSTOCK         N/A     84  43  23 W14         N/A
CHAMBERS         N/A     78  46  31 S12G20      N/A
EWING            N/A     78  49  36 CALM        N/A
$$

...OBSERVATIONS IN SOUTHWEST NEBRASKA AND FAR NORTHEAST COLORADO...

CITY           SKY/WX    TMP DP  RH WIND       PRES   REMARKS
WRAY           FAIR      78  34  20 S8        29.75F
HOLYOKE        FAIR      73  39  29 W6        29.76S
IMPERIAL       MOSUNNY   75  40  28 SW10      29.74F
OGALLALA       PTSUNNY   77  40  26 W14G25    29.72S
NORTH PLATTE   MOSUNNY   77  42  28 SW15      29.71S
MCCOOK         SUNNY     78  39  24 SE6       29.73F
LEXINGTON      SUNNY     78  44  29 S5        29.71F
PAXTON           N/A     74  44  33 W8          N/A
SUTHERLAND       N/A     80  32  17 SW10        N/A
BRADY            N/A     76  48  36 S3          N/A
GOTHENBURG       N/A     77  38  24 W5          N/A
CALLAWAY         N/A     77  45  31 W21         N/A
$$

...SOME WEATHER OBSERVATIONS FROM AROUND THE REGION...

CITY           SKY/WX    TMP DP  RH WIND       PRES   REMARKS
DENVER         PTSUNNY   65  34  31 NW15      29.82F
LARAMIE        CLOUDY    50  35  56 W18G30    29.88F
CHEYENNE       CLOUDY    62  34  35 W26G32    29.83S
SCOTTSBLUFF    MOSUNNY   70  41  34 W22G33    29.71F
RAPID CITY     PTSUNNY   63  45  51 NW26G33   29.54R
PIERRE         CLOUDY    69  52  54 SW18G29   29.44S
WINNER         PTSUNNY   74  45  35 SW25G37   29.56R
SIOUX FALLS    CLOUDY    65  61  87 S20G29    29.72F
OMAHA          HVY RAIN  66  63  90 SE6       29.81F FOG
GRAND ISLAND   SUNNY     74  60  61 SE18      29.73F
KANSAS CITY    MOSUNNY   83  59  44 S14G21    29.81F
WICHITA        PTSUNNY   88  58  36 S21G28    29.73F
HAYS           SUNNY     81  61  50 SW14      29.71F
LIBERAL        SUNNY     82  45  26 SW3       29.74F
GOODLAND       SUNNY     72  41  32 S7        29.77F
$$



USA.gov is the U.S. government's official web portal to all federal, state and local government web resources and services.